This demonstration page uses our WeatherBlox Daily Observations layout. Learn more.

Left ArrowRight Arrow

Hourly Observations for July 14, 2018

Temp ( °F °C ) Dew Point ( °F °C ) Humidity (%) Winds ( mph kmh ) Pressure ( in mb ) Visibility ( mi km ) Precip ( " mm )
12:15 am 00:15 Partly Cloudy 70 21 67 19.6 92 92 ESE 3 6 30.06 1018 10 16 N/A
12:35 am 00:35 Clear 70 21.1 67 19.5 91 91 N N/A 30.03 1017 10 16 N/A
12:55 am 00:55 Clear 69 20.5 66 19 91 91 N N/A 30.06 1018 10 16 N/A
1:15 am 01:15 Clear 68 20.2 66 19.1 93 93 N N/A 30.06 1018 10 16 N/A
1:35 am 01:35 Clear with Mist and Fog 68 19.8 66 19 95 95 N N/A 30.03 1017 5 8 N/A
1:55 am 01:55 Mostly Cloudy with Fog 66 19.1 65 18.2 95 95 N N/A 30.03 1017 1 1 N/A
2:15 am 02:15 Cloudy with Fog 65 18.6 64 17.8 95 95 N N/A 30.03 1017 0 0 N/A
2:35 am 02:35 Cloudy with Fog 64 18 63 17.2 95 95 N N/A 30.03 1017 0 0 N/A
2:55 am 02:55 Cloudy with Fog 64 17.7 63 17 96 96 N 3 6 30.03 1017 0 0 N/A
3:15 am 03:15 Cloudy with Fog 64 18 63 17.3 96 96 N N/A 30.03 1017 0 0 N/A
3:35 am 03:35 Cloudy with Fog 64 17.5 62 16.8 96 96 N N/A 30.03 1017 0 0 N/A
3:55 am 03:55 Cloudy with Fog 63 17.4 62 16.6 95 95 N N/A 30.03 1017 0 0 N/A
4:15 am 04:15 Cloudy with Fog 64 17.5 62 16.8 96 96 N N/A 30.03 1017 0 0 N/A
4:35 am 04:35 Cloudy with Fog 64 17.6 63 17 96 96 N N/A 30.03 1017 1 1 N/A
4:55 am 04:55 Cloudy with Fog 64 17.7 63 17 96 96 N N/A 30.03 1017 1 1 N/A
5:15 am 05:15 Cloudy with Fog 65 18.2 64 17.5 96 96 N N/A 30.03 1017 5 8 N/A
5:35 am 05:35 Cloudy with Fog 65 18.2 64 17.5 96 96 N N/A 30.03 1017 5 8 N/A
5:55 am 05:55 Cloudy with Fog 65 18.3 64 17.6 96 96 N N/A 30.03 1017 5 8 N/A
6:15 am 06:15 Cloudy with Fog 65 18.1 64 17.5 96 96 N N/A 30.03 1017 5 8 N/A
6:35 am 06:35 Cloudy with Fog 65 18.3 64 17.6 96 96 N N/A 30.03 1017 5 8 N/A
6:55 am 06:55 Cloudy with Fog 65 18.5 64 17.8 96 96 N N/A 30.03 1017 5 8 N/A
7:15 am 07:15 Cloudy with Fog 66 18.7 64 18 96 96 N N/A 30.03 1017 5 8 N/A
7:35 am 07:35 Cloudy with Fog 66 19 65 18.2 95 95 N N/A 30.03 1017 5 8 N/A
7:55 am 07:55 Cloudy with Fog 67 19.4 66 18.7 96 96 N N/A 30.03 1017 5 8 N/A
8:15 am 08:15 Cloudy with Fog 68 19.8 66 19.1 96 96 N N/A 30.06 1018 5 8 N/A
8:35 am 08:35 Cloudy with Fog 68 20.2 67 19.5 96 96 N N/A 30.06 1018 5 8 N/A
8:55 am 08:55 Cloudy with Fog 69 20.4 67 19.7 96 96 N N/A 30.03 1017 5 8 N/A
9:15 am 09:15 Cloudy with Mist and Fog 69 20.5 68 19.8 96 96 N N/A 30.06 1018 3 4 N/A
9:35 am 09:35 Mostly Cloudy with Mist and Fog 69 20.8 68 20.1 96 96 N N/A 30.06 1018 4 6 N/A
9:55 am 09:55 Partly Cloudy 70 21 68 20.2 95 95 N N/A 30.06 1018 7 11 N/A
10:15 am 10:15 Partly Cloudy 71 21.4 69 20.6 95 95 N N/A 30.03 1017 10 16 N/A
10:35 am 10:35 Mostly Cloudy 71 21.4 69 20.3 93 93 N N/A 30.00 1016 10 16 N/A
10:55 am 10:55 Cloudy 72 22.1 69 20.8 92 92 SSW 3 6 30.00 1016 10 16 N/A
11:15 am 11:15 Cloudy 76 24.5 70 20.9 80 80 SW 3 6 29.97 1015 10 16 N/A
11:35 am 11:35 Cloudy 75 24.1 67 19.5 76 76 N N/A 30.00 1016 10 16 N/A
11:55 am 11:55 Mostly Cloudy 77 24.8 66 19.1 71 71 N N/A 29.97 1015 10 16 N/A
12:15 pm 12:15 Cloudy 77 24.9 66 19.1 70 70 ENE 3 6 29.97 1015 10 16 N/A
12:35 pm 12:35 Cloudy 77 25.1 66 19 69 69 E 3 6 29.97 1015 10 16 N/A
12:55 pm 12:55 Mostly Cloudy 80 26.5 67 19.3 65 65 SSE 7 11 29.97 1015 10 16 N/A
1:15 pm 13:15 Mostly Cloudy 78 25.6 65 18.6 65 65 E 3 6 29.97 1015 10 16 N/A
1:35 pm 13:35 Mostly Cloudy 80 26.9 67 19.3 63 63 SE 7 11 29.97 1015 10 16 N/A
1:55 pm 13:55 Cloudy 80 26.8 67 19.4 64 64 SSE 9 15 29.97 1015 10 16 N/A
2:15 pm 14:15 Mostly Cloudy 81 27.1 66 19.1 62 62 SSE 7 11 29.97 1015 10 16 N/A
2:35 pm 14:35 Mostly Cloudy 80 26.8 67 19.3 64 64 SE 9 15 29.97 1015 10 16 N/A
2:55 pm 14:55 Mostly Cloudy 82 27.5 66 19.1 60 60 S 5 7 29.94 1014 10 16 N/A
3:15 pm 15:15 Mostly Cloudy 80 26.8 66 19 62 62 SE 6 9 29.94 1014 10 16 N/A
3:35 pm 15:35 Mostly Cloudy 82 27.5 68 19.9 63 63 SSE 7 11 29.94 1014 10 16 N/A
3:55 pm 15:55 Partly Cloudy 82 27.8 67 19.7 61 61 SSE 8 13 29.91 1013 10 16 N/A
4:15 pm 16:15 Partly Cloudy 81 27.3 68 19.9 64 64 SSE 7 11 29.94 1014 10 16 N/A
4:35 pm 16:35 Sunny 82 27.5 67 19.3 61 61 N N/A 29.88 1012 10 16 N/A
4:55 pm 16:55 Sunny 82 27.5 67 19.3 61 61 SSE 6 9 29.88 1012 10 16 N/A
5:15 pm 17:15 Sunny 82 27.7 67 19.5 61 61 SSE 5 7 29.88 1012 10 16 N/A
5:35 pm 17:35 Sunny 82 27.9 68 20.1 63 63 S 8 13 29.88 1012 10 16 N/A
5:55 pm 17:55 Sunny 82 28 68 20.2 63 63 SSE 9 15 29.88 1012 10 16 N/A
6:15 pm 18:15 Sunny 82 27.8 68 20.2 63 63 SE 7 11 29.88 1012 10 16 N/A
6:35 pm 18:35 Sunny 82 27.8 69 20.3 64 64 SSE 7 11 29.88 1012 10 16 N/A
6:55 pm 18:55 Sunny 82 27.9 69 20.3 63 63 SSE 3 6 29.88 1012 10 16 N/A
7:15 pm 19:15 Sunny 82 27.7 68 20.1 63 63 SE 3 6 29.88 1012 10 16 N/A
7:35 pm 19:35 Sunny 82 27.5 69 20.3 65 65 SSE 5 7 29.88 1012 10 16 N/A
7:55 pm 19:55 Sunny 81 27.1 69 20.4 67 67 SE 6 9 29.91 1013 10 16 N/A
8:15 pm 20:15 Sunny 80 26.4 69 20.4 70 70 SE 7 11 29.91 1013 10 16 N/A
8:35 pm 20:35 Sunny 78 25.7 69 20.3 72 72 SE 7 11 29.91 1013 10 16 N/A
8:55 pm 20:55 Sunny 78 25.5 68 20.2 73 73 SE 7 11 29.91 1013 10 16 N/A
9:15 pm 21:15 Clear 76 24.5 69 20.5 78 78 SE 7 11 29.91 1013 10 16 N/A
9:35 pm 21:35 Clear 76 24.2 69 20.5 80 80 SE 6 9 29.91 1013 10 16 N/A
9:55 pm 21:55 Clear 73 23 68 20.1 84 84 ESE 6 9 29.94 1014 10 16 N/A
10:15 pm 22:15 Clear 73 23 69 20.3 85 85 ESE 5 7 29.94 1014 10 16 N/A
10:35 pm 22:35 Clear 73 23 69 20.3 85 85 ESE 5 7 29.94 1014 10 16 N/A
10:55 pm 22:55 Clear 73 23 69 20.3 85 85 SE 6 9 29.94 1014 10 16 N/A
11:15 pm 23:15 Clear 74 23.1 69 20.5 85 85 SE 5 7 29.94 1014 10 16 N/A
11:35 pm 23:35 Clear 73 22.7 68 20.2 86 86 SE 5 7 29.94 1014 10 16 N/A
11:55 pm 23:55 Clear 73 22.9 69 20.4 86 86 SE 6 9 29.94 1014 10 16 N/A

Powered by AerisWeather